| time (UTC) | temp C | wind direction | speed KPH | gust KPH | rain 1hr cm | rain 24hr cm | rain mn cm | humidity % | barometer mb |
| 20260507033102 | 25 | 310 | 4.8 | 0.0 | 0.00 | 0.00 | 0.00 | 24 | 1011.8 |
| 20260507031604 | 25 | 79 | 3.2 | 0.0 | 0.00 | 0.00 | 0.00 | 21 | 1011.5 |
| 20260507030055 | 25 | 79 | 3.2 | 0.0 | 0.00 | 0.00 | 0.00 | 20 | 1011.4 |
| 20260507024556 | 26 | 79 | 1.6 | 0.0 | 0.00 | 0.00 | 0.00 | 20 | 1011.2 |
| 20260507023053 | 26 | 79 | 3.2 | 0.0 | 0.00 | 0.00 | 0.00 | 19 | 1011.1 |
| 20260507021552 | 26 | 79 | 3.2 | 0.0 | 0.00 | 0.00 | 0.00 | 19 | 1010.9 |
| 20260507020054 | 27 | 74 | 3.2 | 0.0 | 0.00 | 0.00 | 0.00 | 18 | 1010.9 |
| 20260507014555 | 27 | 84 | 4.8 | 0.0 | 0.00 | 0.00 | 0.00 | 18 | 1011.0 |
| 20260507013108 | 27 | 109 | 3.2 | 0.0 | 0.00 | 0.00 | 0.00 | 18 | 1010.9 |
| 20260507011551 | 27 | 124 | 6.4 | 0.0 | 0.00 | 0.00 | 0.00 | 18 | 1010.9 |
| 20260507004550 | 27 | 167 | 3.2 | 0.0 | 0.00 | 0.00 | 0.00 | 18 | 1010.9 |
| 20260507003048 | 27 | 127 | 9.7 | 0.0 | 0.00 | 0.00 | 0.00 | 18 | 1011.0 |
| 20260507001551 | 27 | 108 | 6.4 | 0.0 | 0.00 | 0.00 | 0.00 | 18 | 1010.9 |
| 20260507000047 | 27 | 63 | 11.3 | 0.0 | 0.00 | 0.00 | 0.00 | 18 | 1011.0 |
| 20260506234548 | 27 | 101 | 8.0 | 0.0 | 0.00 | 0.00 | 0.00 | 19 | 1011.0 |
| 20260506233059 | 27 | 130 | 3.2 | 0.0 | 0.00 | 0.00 | 0.00 | 19 | 1011.1 |
| 20260506231542 | 27 | 83 | 6.4 | 0.0 | 0.00 | 0.00 | 0.00 | 19 | 1011.2 |
| 20260506230039 | 27 | 111 | 11.3 | 0.0 | 0.00 | 0.00 | 0.00 | 19 | 1011.4 |
| 20260506224537 | 27 | 142 | 9.7 | 0.0 | 0.00 | 0.00 | 0.00 | 19 | 1011.6 |
| 20260506223034 | 27 | 35 | 8.0 | 0.0 | 0.00 | 0.00 | 0.00 | 19 | 1011.9 |
| 20260506221533 | 27 | 114 | 6.4 | 0.0 | 0.00 | 0.00 | 0.00 | 19 | 1012.1 |
| 20260506220031 | 26 | 55 | 6.4 | 0.0 | 0.00 | 0.00 | 0.00 | 20 | 1012.3 |
| 20260506214528 | 27 | 143 | 6.4 | 0.0 | 0.00 | 0.00 | 0.00 | 20 | 1012.5 |
| 20260506213027 | 26 | 104 | 8.0 | 0.0 | 0.00 | 0.00 | 0.00 | 20 | 1012.7 |
| 20260506211528 | 26 | 89 | 8.0 | 0.0 | 0.00 | 0.00 | 0.00 | 20 | 1013.0 |
| 20260506210032 | 26 | 152 | 11.3 | 0.0 | 0.00 | 0.00 | 0.00 | 20 | 1013.1 |
| 20260506204523 | 26 | 128 | 6.4 | 0.0 | 0.00 | 0.00 | 0.00 | 20 | 1013.3 |
| 20260506203021 | 26 | 93 | 9.7 | 0.0 | 0.00 | 0.00 | 0.00 | 21 | 1013.4 |
| 20260506201519 | 26 | 33 | 6.4 | 0.0 | 0.00 | 0.00 | 0.00 | 22 | 1013.6 |
| 20260506200032 | 25 | 217 | 9.7 | 0.0 | 0.00 | 0.00 | 0.00 | 23 | 1013.9 |
| 20260506194516 | 25 | 291 | 8.0 | 0.0 | 0.00 | 0.00 | 0.00 | 22 | 1014.2 |
| 20260506193014 | 25 | 80 | 9.7 | 0.0 | 0.00 | 0.00 | 0.00 | 24 | 1014.2 |
| 20260506191512 | 25 | 75 | 6.4 | 0.0 | 0.00 | 0.00 | 0.00 | 24 | 1014.3 |
| 20260506190009 | 24 | 111 | 6.4 | 0.0 | 0.00 | 0.00 | 0.00 | 25 | 1014.5 |
| 20260506184508 | 23 | 46 | 8.0 | 0.0 | 0.00 | 0.00 | 0.00 | 27 | 1014.6 |
| 20260506183009 | 23 | 120 | 8.0 | 0.0 | 0.00 | 0.00 | 0.00 | 27 | 1014.8 |
| 20260506181509 | 23 | 81 | 6.4 | 0.0 | 0.00 | 0.00 | 0.00 | 27 | 1014.9 |
| 20260506180013 | 23 | 140 | 4.8 | 0.0 | 0.00 | 0.00 | 0.00 | 28 | 1014.9 |
| 20260506174501 | 22 | 102 | 6.4 | 0.0 | 0.00 | 0.00 | 0.00 | 29 | 1015.1 |
| 20260506173112 | 22 | 149 | 8.0 | 0.0 | 0.00 | 0.00 | 0.00 | 30 | 1015.0 |
| 20260506171605 | 22 | 72 | 6.4 | 0.0 | 0.00 | 0.00 | 0.00 | 31 | 1015.0 |
| 20260506170100 | 21 | 92 | 6.4 | 0.0 | 0.00 | 0.00 | 0.00 | 32 | 1014.9 |
| 20260506164611 | 21 | 57 | 4.8 | 0.0 | 0.00 | 0.00 | 0.00 | 33 | 1014.8 |
| 20260506163055 | 21 | 88 | 4.8 | 0.0 | 0.00 | 0.00 | 0.00 | 34 | 1014.8 |
| 20260506161551 | 20 | 127 | 6.4 | 0.0 | 0.00 | 0.00 | 0.00 | 35 | 1014.9 |
| 20260506160050 | 20 | 104 | 3.2 | 0.0 | 0.00 | 0.00 | 0.00 | 35 | 1014.8 |
| 20260506154550 | 19 | 76 | 4.8 | 0.0 | 0.00 | 0.00 | 0.00 | 36 | 1014.8 |
| 20260506153040 | 18 | 65 | 3.2 | 0.0 | 0.00 | 0.00 | 0.00 | 38 | 1014.9 |
| 20260506151539 | 18 | 71 | 1.6 | 0.0 | 0.00 | 0.00 | 0.00 | 37 | 1014.9 |
| 20260506150037 | 18 | 52 | 0.0 | 0.0 | 0.00 | 0.00 | 0.00 | 40 | 1014.8 |
| 20260506144532 | 17 | 301 | 1.6 | 0.0 | 0.00 | 0.00 | 0.00 | 43 | 1014.8 |
| 20260506143033 | 16 | 301 | 0.0 | 0.0 | 0.00 | 0.00 | 0.00 | 45 | 1014.6 |
| 20260506141525 | 15 | 301 | 0.0 | 0.0 | 0.00 | 0.00 | 0.00 | 48 | 1014.6 |
| 20260506140026 | 13 | 301 | 0.0 | 0.0 | 0.00 | 0.00 | 0.00 | 52 | 1014.5 |
| 20260506134523 | 12 | 301 | 0.0 | 0.0 | 0.00 | 0.00 | 0.00 | 55 | 1014.3 |
| 20260506133021 | 12 | 300 | 3.2 | 0.0 | 0.00 | 0.00 | 0.00 | 55 | 1014.1 |
| 20260506131519 | 12 | 301 | 3.2 | 0.0 | 0.00 | 0.00 | 0.00 | 53 | 1013.8 |
| 20260506130017 | 11 | 301 | 6.4 | 0.0 | 0.00 | 0.00 | 0.00 | 57 | 1013.6 |
| 20260506124514 | 11 | 301 | 1.6 | 0.0 | 0.00 | 0.00 | 0.00 | 56 | 1013.5 |
| 20260506123014 | 11 | 301 | 3.2 | 0.0 | 0.00 | 0.00 | 0.00 | 57 | 1013.3 |
| 20260506121515 | 11 | 301 | 3.2 | 0.0 | 0.00 | 0.00 | 0.00 | 57 | 1013.2 |
| 20260506120011 | 11 | 301 | 4.8 | 0.0 | 0.00 | 0.00 | 0.00 | 57 | 1013.1 |
| 20260506114510 | 11 | 295 | 1.6 | 0.0 | 0.00 | 0.00 | 0.00 | 55 | 1013.1 |
| 20260506113008 | 12 | 5 | 1.6 | 0.0 | 0.00 | 0.00 | 0.00 | 52 | 1012.9 |
| 20260506111505 | 12 | 5 | 0.0 | 0.0 | 0.00 | 0.00 | 0.00 | 53 | 1012.9 |
| 20260506110004 | 12 | 5 | 4.8 | 0.0 | 0.00 | 0.00 | 0.00 | 53 | 1012.9 |
| 20260506104504 | 12 | 5 | 3.2 | 0.0 | 0.00 | 0.00 | 0.00 | 53 | 1013.0 |
| 20260506103059 | 13 | 102 | 1.6 | 0.0 | 0.00 | 0.00 | 0.00 | 50 | 1012.9 |
| 20260506101558 | 13 | 138 | 4.8 | 0.0 | 0.00 | 0.00 | 0.00 | 50 | 1012.8 |
| 20260506100056 | 14 | 95 | 4.8 | 0.0 | 0.00 | 0.00 | 0.00 | 47 | 1012.8 |
| 20260506100022 | 14 | 151 | 3.2 | 0.0 | 0.00 | 0.00 | 0.00 | 47 | 1012.8 |
| 20260506094555 | 14 | 356 | 1.6 | 0.0 | 0.00 | 0.00 | 0.00 | 47 | 1012.6 |
| 20260506093055 | 15 | 275 | 8.0 | 0.0 | 0.00 | 0.00 | 0.00 | 47 | 1012.6 |
| 20260506091551 | 14 | 223 | 4.8 | 0.0 | 0.00 | 0.00 | 0.00 | 48 | 1012.7 |
| 20260506090047 | 15 | 162 | 8.0 | 0.0 | 0.00 | 0.00 | 0.00 | 45 | 1013.0 |
| 20260506084546 | 15 | 265 | 11.3 | 0.0 | 0.00 | 0.00 | 0.00 | 46 | 1012.9 |
| 20260506083047 | 15 | 286 | 8.0 | 0.0 | 0.00 | 0.00 | 0.00 | 46 | 1013.1 |
| 20260506081549 | 15 | 225 | 4.8 | 0.0 | 0.00 | 0.00 | 0.00 | 45 | 1013.1 |
| 20260506073039 | 15 | 229 | 11.3 | 0.0 | 0.00 | 0.00 | 0.00 | 45 | 1013.1 |
| 20260506071547 | 15 | 325 | 1.6 | 0.0 | 0.00 | 0.00 | 0.00 | 47 | 1013.0 |
| 20260506061508 | 16 | 293 | 12.9 | 0.0 | 0.00 | 0.00 | 0.00 | 44 | 1012.7 |
| 20260506044502 | 16 | 317 | 16.1 | 0.0 | 0.00 | 0.00 | 0.00 | 42 | 1012.0 |
| 20260506043004 | 16 | 288 | 12.9 | 0.0 | 0.00 | 0.00 | 0.00 | 41 | 1012.1 |
| 20260506041600 | 16 | 241 | 16.1 | 0.0 | 0.00 | 0.00 | 0.00 | 41 | 1011.9 |
| 20260506040100 | 16 | 294 | 19.3 | 0.0 | 0.00 | 0.00 | 0.00 | 41 | 1011.7 |
| 20260506034555 | 17 | 274 | 19.3 | 0.0 | 0.00 | 0.00 | 0.00 | 40 | 1011.5 |